Regional Weather Roundup
Issued by NWS

Home | Current Version | Previous Version | Text Only | Print | Product List | Glossary Off
Versions: 1 2 3 4 5 6 7 8 9 10 11 12 13 14 15 16 17 18 19 20 21 22 23 24 25 26 27 28 29 30 31 32 33 34 35 36 37 38 39 40 41 42 43 44 45 46 47 48 49 50

000
ASUS45 KABQ 272310
RWRNM
NEW MEXICO REGIONAL WEATHER ROUNDUP
NATIONAL WEATHER SERVICE ALBUQUERQUE NM
500 PM MDT FRI MAY 27 2016

NOTE: "FAIR" MEANS FEW OR NO CLOUDS BELOW 12,000 FEET AGL WITH NO
       SIGNIFICANT WEATHER OR OBSTRUCTIONS TO VISION.

      THIS PRODUCT IS RELEASED AS TWO VERSIONS.  ONE VERSION NEAR
      THE TOP OF THE HOUR CONTAINING PRELIMINARY DATA FROM ALBUQUERQUE
      AND OTHER STATIONS.  A FINAL VERSION WITH ADDITIONAL DATA IS
      ISSUED ABOUT 10 MINUTES AFTER THE HOUR.

NMZ501-503-504-510>518-280000-
NORTHWEST PLATEAU/NORTHCENTRAL MOUNTAINS

CITY           SKY/WX    TMP DP  RH WIND       PRES   REMARKS
FARMINGTON     FAIR      72  18  13 W18G35    29.86S
LOS ALAMOS     FAIR      67  18  15 W15G23    29.93R
SANTA FE       FAIR      69  21  16 W17G25    29.87R
TAOS           CLOUDY    46  36  66 N15G25    29.97R
ANGEL FIRE     CLOUDY    50  27  40 SW6       30.00R

$$
NMZ402-403-502-505>509-280000-
WESTCENTRAL MOUNTAINS/SOUTHWEST MOUNTAINS

CITY           SKY/WX    TMP DP  RH WIND       PRES   REMARKS
GALLUP         FAIR      67  23  19 NW16G24   29.96R
GRANTS         PTSUNNY   68  20  16 NW15G28   29.96R
SILVER CITY      N/A     75  18  11 W18G26    29.95S

$$
NMZ407-409-411-412-280000-
SOUTHERN DESERTS

CITY           SKY/WX    TMP DP  RH WIND       PRES   REMARKS
LORDSBURG      FAIR      81  19  10 W13G23    29.89F
DEMING         FAIR      81  17   9 W18G25    29.88S
LAS CRUCES     FAIR      81  17   9 W15G26    29.88S
HOLLOMAN AFB   FAIR      81  18   9 VRB2      29.83F
ALAMOGORDO     FAIR      81  19  10 NW3       29.85S
T OR C         FAIR      79  21  11 VRB3      29.83F

$$
NMZ519>523-280000-
CENTRAL VALLEYS/CENTRAL HIGHLANDS

CITY           SKY/WX    TMP DP  RH WIND       PRES   REMARKS
ALBUQUERQUE    PTSUNNY   74  22  14 W14       29.86S
DOUBLE EAGLE   PTSUNNY   72  25  17 W13G26    29.89F
MORIARTY ARPT  FAIR      72  15  11 W16G28    29.91R
CLINES CORNERS FAIR      68  19  15 W17G29    29.92R
BELEN          FAIR      77  21  12 W9G22     29.86S
SOCORRO        FAIR      79  21  11 NW6G20    29.84S

$$
NMZ524>526-539-540-280000-
SOUTHCENTRAL MOUNTAINS

CITY           SKY/WX    TMP DP  RH WIND       PRES   REMARKS
RUIDOSO          N/A     68  19  15 W15G26    29.98S

$$
NMZ527>531-280000-
NORTHEAST HIGHLANDS/NORTHEAST PLAINS

CITY           SKY/WX    TMP DP  RH WIND       PRES   REMARKS
LAS VEGAS      FAIR      69  25  19 W21G30    29.88R
RATON          FAIR      64  39  39 N20       29.86R
CLAYTON        FAIR      69  40  34 NW26G33   29.82R

$$
NMZ532>537-280000-
EASTCENTRAL PLAINS

CITY           SKY/WX    TMP DP  RH WIND       PRES   REMARKS
TUCUMCARI      FAIR      78  29  16 VRB7      29.75F
CANNON AFB     FAIR      78  29  16 VRB6      29.79S
CLOVIS AIRPORT FAIR      79  32  18 NW14      29.80S

$$
NMZ028-029-538-280000-
SOUTHEAST PLAINS

CITY           SKY/WX    TMP DP  RH WIND       PRES   REMARKS
ROSWELL        FAIR      84  20   9 W9        29.76F
ARTESIA        FAIR      84  21  10 W8G14     29.76S
CARLSBAD       FAIR      87  19   8 SW22G28   29.74F
HOBBS          SUNNY     84  19   9 SW14G22   29.80S


$$




USA.gov is the U.S. government's official web portal to all federal, state and local government web resources and services.